Year,Month,Day,Hour,Minute,Value (Times are PST for temperature in C)
2006,06,25,00,00,18.70
2006,06,25,00,01,18.70
2006,06,25,00,02,18.60
2006,06,25,00,03,18.60
2006,06,25,00,04,18.60
2006,06,25,00,05,18.60
2006,06,25,00,06,18.60
2006,06,25,00,07,18.50
2006,06,25,00,08,18.50
2006,06,25,00,09,18.50
2006,06,25,00,10,18.50
2006,06,25,00,11,18.40
2006,06,25,00,12,18.40
2006,06,25,00,13,18.40
2006,06,25,00,14,18.30
2006,06,25,00,15,18.30
2006,06,25,00,16,18.30
2006,06,25,00,17,18.20
2006,06,25,00,18,18.20
2006,06,25,00,19,18.20
2006,06,25,00,20,18.20
2006,06,25,00,21,18.20
2006,06,25,00,22,18.20
2006,06,25,00,23,18.20
2006,06,25,00,24,18.10
2006,06,25,00,25,18.10
2006,06,25,00,26,18.10
2006,06,25,00,27,18.00
2006,06,25,00,28,17.90
2006,06,25,00,29,17.90
2006,06,25,00,30,17.90
2006,06,25,00,31,17.90
2006,06,25,00,32,17.90
2006,06,25,00,33,17.90
2006,06,25,00,34,17.80
2006,06,25,00,35,17.80
2006,06,25,00,36,17.80
2006,06,25,00,37,17.80
2006,06,25,00,38,17.70
2006,06,25,00,39,17.70
2006,06,25,00,40,17.70
2006,06,25,00,41,17.60
2006,06,25,00,42,17.60
2006,06,25,00,43,17.60
2006,06,25,00,44,17.50
2006,06,25,00,45,17.50
2006,06,25,00,46,17.50
2006,06,25,00,47,17.50
2006,06,25,00,48,17.50
2006,06,25,00,49,17.50
2006,06,25,00,50,17.50
2006,06,25,00,51,17.50
2006,06,25,00,52,17.50
2006,06,25,00,53,17.50
2006,06,25,00,54,17.40
2006,06,25,00,55,17.40
2006,06,25,00,56,17.40
2006,06,25,00,57,17.30
2006,06,25,00,58,17.30
2006,06,25,00,59,17.30
2006,06,25,01,00,17.30
2006,06,25,01,01,17.30
2006,06,25,01,02,17.30
2006,06,25,01,03,17.30
2006,06,25,01,04,17.30
2006,06,25,01,05,17.30
2006,06,25,01,06,17.30
2006,06,25,01,07,17.30
2006,06,25,01,08,17.30
2006,06,25,01,09,17.30
2006,06,25,01,10,17.30
2006,06,25,01,11,17.30
2006,06,25,01,12,17.30
2006,06,25,01,13,17.30
2006,06,25,01,14,17.30
2006,06,25,01,15,17.30
2006,06,25,01,16,17.30
2006,06,25,01,17,17.30
2006,06,25,01,18,17.30
2006,06,25,01,19,17.30
2006,06,25,01,20,17.30
2006,06,25,01,21,17.20
2006,06,25,01,22,17.20
2006,06,25,01,23,17.20
2006,06,25,01,24,17.20
2006,06,25,01,25,17.10
2006,06,25,01,26,17.10
2006,06,25,01,27,17.10
2006,06,25,01,28,17.10
2006,06,25,01,29,17.00
2006,06,25,01,30,17.00
2006,06,25,01,31,17.00
2006,06,25,01,32,17.00
2006,06,25,01,33,16.90
2006,06,25,01,34,16.90
2006,06,25,01,35,16.90
2006,06,25,01,36,16.90
2006,06,25,01,37,16.80
2006,06,25,01,38,16.80
2006,06,25,01,39,16.80
2006,06,25,01,40,16.70
2006,06,25,01,41,16.70
2006,06,25,01,42,16.70
2006,06,25,01,43,16.70
2006,06,25,01,44,16.70
2006,06,25,01,45,16.70
2006,06,25,01,46,16.70
2006,06,25,01,47,16.70
2006,06,25,01,48,16.70
2006,06,25,01,49,16.70
2006,06,25,01,50,16.60
2006,06,25,01,51,16.60
2006,06,25,01,52,16.60
2006,06,25,01,53,16.60
2006,06,25,01,54,16.40
2006,06,25,01,55,16.40
2006,06,25,01,56,16.40
2006,06,25,01,57,16.40
2006,06,25,01,58,16.40
2006,06,25,01,59,16.30
2006,06,25,02,00,16.30
2006,06,25,02,01,16.30
2006,06,25,02,02,16.20
2006,06,25,02,03,16.20
2006,06,25,02,04,16.10
2006,06,25,02,05,16.10
2006,06,25,02,06,16.10
2006,06,25,02,07,16.10
2006,06,25,02,08,15.90
2006,06,25,02,09,15.90
2006,06,25,02,10,15.90
2006,06,25,02,11,15.80
2006,06,25,02,12,15.80
2006,06,25,02,13,15.80
2006,06,25,02,14,15.80
2006,06,25,02,15,15.80
2006,06,25,02,16,15.80
2006,06,25,02,17,15.70
2006,06,25,02,18,15.70
2006,06,25,02,19,15.70
2006,06,25,02,20,15.60
2006,06,25,02,21,15.60
2006,06,25,02,22,15.60
2006,06,25,02,23,15.50
2006,06,25,02,24,15.50
2006,06,25,02,25,15.50
2006,06,25,02,26,15.40
2006,06,25,02,27,15.40
2006,06,25,02,28,15.40
2006,06,25,02,29,15.40
2006,06,25,02,30,15.30
2006,06,25,02,31,15.30
2006,06,25,02,32,15.30
2006,06,25,02,33,15.30
2006,06,25,02,34,15.30
2006,06,25,02,35,15.30
2006,06,25,02,36,15.30
2006,06,25,02,37,15.30
2006,06,25,02,38,15.30
2006,06,25,02,39,15.30
2006,06,25,02,40,15.30
2006,06,25,02,41,15.30
2006,06,25,02,42,15.30
2006,06,25,02,43,15.20
2006,06,25,02,44,15.20
2006,06,25,02,45,15.10
2006,06,25,02,46,15.10
2006,06,25,02,47,15.10
2006,06,25,02,48,15.10
2006,06,25,02,49,15.10
2006,06,25,02,50,15.00
2006,06,25,02,51,15.00
2006,06,25,02,52,15.00
2006,06,25,02,53,15.00
2006,06,25,02,54,15.00
2006,06,25,02,55,15.00
2006,06,25,02,56,15.00
2006,06,25,02,57,14.90
2006,06,25,02,58,14.90
2006,06,25,02,59,14.90
2006,06,25,03,00,14.90
2006,06,25,03,01,14.80
2006,06,25,03,02,14.80
2006,06,25,03,03,14.80
2006,06,25,03,04,14.80
2006,06,25,03,05,14.80
2006,06,25,03,06,14.80
2006,06,25,03,07,14.80
2006,06,25,03,08,14.80
2006,06,25,03,09,14.70
2006,06,25,03,10,14.70
2006,06,25,03,11,14.60
2006,06,25,03,12,14.60
2006,06,25,03,13,14.60
2006,06,25,03,14,14.60
2006,06,25,03,15,14.60
2006,06,25,03,16,14.50
2006,06,25,03,17,14.50
2006,06,25,03,18,14.50
2006,06,25,03,19,14.50
2006,06,25,03,20,14.40
2006,06,25,03,21,14.40
2006,06,25,03,22,14.40
2006,06,25,03,23,14.30
2006,06,25,03,24,14.30
2006,06,25,03,25,14.30
2006,06,25,03,26,14.20
2006,06,25,03,27,14.20
2006,06,25,03,28,14.20
2006,06,25,03,29,14.20
2006,06,25,03,30,14.20
2006,06,25,03,31,14.20
2006,06,25,03,32,14.20
2006,06,25,03,33,14.20
2006,06,25,03,34,14.20
2006,06,25,03,35,14.20
2006,06,25,03,36,14.20
2006,06,25,03,37,14.20
2006,06,25,03,38,14.20
2006,06,25,03,39,14.20
2006,06,25,03,40,14.20
2006,06,25,03,41,14.20
2006,06,25,03,42,14.10
2006,06,25,03,43,14.10
2006,06,25,03,44,14.00
2006,06,25,03,45,14.00
2006,06,25,03,46,14.00
2006,06,25,03,47,14.00
2006,06,25,03,48,13.90
2006,06,25,03,49,13.90
2006,06,25,03,50,13.80
2006,06,25,03,51,13.80
2006,06,25,03,52,13.80
2006,06,25,03,53,13.70
2006,06,25,03,54,13.70
2006,06,25,03,55,13.70
2006,06,25,03,56,13.60
2006,06,25,03,57,13.60
2006,06,25,03,58,13.60
2006,06,25,03,59,13.50
2006,06,25,04,00,13.50
2006,06,25,04,01,13.50
2006,06,25,04,02,13.50
2006,06,25,04,03,13.40
2006,06,25,04,04,13.40
2006,06,25,04,05,13.30
2006,06,25,04,06,13.30
2006,06,25,04,07,13.30
2006,06,25,04,08,13.30
2006,06,25,04,09,13.30
2006,06,25,04,10,13.30
2006,06,25,04,11,13.30
2006,06,25,04,12,13.30
2006,06,25,04,13,13.30
2006,06,25,04,14,13.30
2006,06,25,04,15,13.30
2006,06,25,04,16,13.30
2006,06,25,04,17,13.30
2006,06,25,04,18,13.30
2006,06,25,04,19,13.30
2006,06,25,04,20,13.30
2006,06,25,04,21,13.30
2006,06,25,04,22,13.30
2006,06,25,04,23,13.30
2006,06,25,04,24,13.30
2006,06,25,04,25,13.30
2006,06,25,04,26,13.30
2006,06,25,04,27,13.30
2006,06,25,04,28,13.30
2006,06,25,04,29,13.30
2006,06,25,04,30,13.30
2006,06,25,04,31,13.30
2006,06,25,04,32,13.30
2006,06,25,04,33,13.30
2006,06,25,04,34,13.30
2006,06,25,04,35,13.30
2006,06,25,04,36,13.30
2006,06,25,04,37,13.30
2006,06,25,04,38,13.30
2006,06,25,04,39,13.30
2006,06,25,04,40,13.30
2006,06,25,04,41,13.30
2006,06,25,04,42,13.30
2006,06,25,04,43,13.30
2006,06,25,04,44,13.30
2006,06,25,04,45,13.30
2006,06,25,04,46,13.30
2006,06,25,04,47,13.30
2006,06,25,04,48,13.30
2006,06,25,04,49,13.30
2006,06,25,04,50,13.30
2006,06,25,04,51,13.30
2006,06,25,04,52,13.30
2006,06,25,04,53,13.30
2006,06,25,04,54,13.30
2006,06,25,04,55,13.40
2006,06,25,04,56,13.40
2006,06,25,04,57,13.40
2006,06,25,04,58,13.30
2006,06,25,04,59,13.30
2006,06,25,05,00,13.30
2006,06,25,05,01,13.30
2006,06,25,05,02,13.30
2006,06,25,05,03,13.30
2006,06,25,05,04,13.30
2006,06,25,05,05,13.40
2006,06,25,05,06,13.40
2006,06,25,05,07,13.50
2006,06,25,05,08,13.50
2006,06,25,05,09,13.50
2006,06,25,05,10,13.50
2006,06,25,05,11,13.50
2006,06,25,05,12,13.50
2006,06,25,05,13,13.50
2006,06,25,05,14,13.50
2006,06,25,05,15,13.50
2006,06,25,05,16,13.50
2006,06,25,05,17,13.50
2006,06,25,05,18,13.50
2006,06,25,05,19,13.50
2006,06,25,05,20,13.50
2006,06,25,05,21,13.50
2006,06,25,05,22,13.50
2006,06,25,05,23,13.50
2006,06,25,05,24,13.50
2006,06,25,05,25,13.50
2006,06,25,05,26,13.50
2006,06,25,05,27,13.50
2006,06,25,05,28,13.50
2006,06,25,05,29,13.50
2006,06,25,05,30,13.50
2006,06,25,05,31,13.50
2006,06,25,05,32,13.40
2006,06,25,05,33,13.40
2006,06,25,05,34,13.40
2006,06,25,05,35,13.40
2006,06,25,05,36,13.40
2006,06,25,05,37,13.40
2006,06,25,05,38,13.40
2006,06,25,05,39,13.30
2006,06,25,05,40,13.30
2006,06,25,05,41,13.30
2006,06,25,05,42,13.30
2006,06,25,05,43,13.30
2006,06,25,05,44,13.30
2006,06,25,05,45,13.30
2006,06,25,05,46,13.30
2006,06,25,05,47,13.30
2006,06,25,05,48,13.30
2006,06,25,05,49,13.30
2006,06,25,05,50,13.30
2006,06,25,05,51,13.30
2006,06,25,05,52,13.30
2006,06,25,05,53,13.30
2006,06,25,05,54,13.30
2006,06,25,05,55,13.20
2006,06,25,05,56,13.20
2006,06,25,05,57,13.20
2006,06,25,05,58,13.20
2006,06,25,05,59,13.20
2006,06,25,06,00,13.10
2006,06,25,06,01,13.10
2006,06,25,06,02,13.10
2006,06,25,06,03,13.10
2006,06,25,06,04,13.10
2006,06,25,06,05,13.10
2006,06,25,06,06,13.00
2006,06,25,06,07,13.00
2006,06,25,06,08,13.00
2006,06,25,06,09,13.10
2006,06,25,06,10,13.10
2006,06,25,06,11,13.10
2006,06,25,06,12,13.10
2006,06,25,06,13,13.10
2006,06,25,06,14,13.10
2006,06,25,06,15,13.10
2006,06,25,06,16,13.10
2006,06,25,06,17,13.20
2006,06,25,06,18,13.20
2006,06,25,06,19,13.20
2006,06,25,06,20,13.20
2006,06,25,06,21,13.30
2006,06,25,06,22,13.30
2006,06,25,06,23,13.30
2006,06,25,06,24,13.30
2006,06,25,06,25,13.30
2006,06,25,06,26,13.30
2006,06,25,06,27,13.30
2006,06,25,06,28,13.40
2006,06,25,06,29,13.50
2006,06,25,06,30,13.50
2006,06,25,06,31,13.50
2006,06,25,06,32,13.60
2006,06,25,06,33,13.60
2006,06,25,06,34,13.70
2006,06,25,06,35,13.70
2006,06,25,06,36,13.70
2006,06,25,06,37,13.80
2006,06,25,06,38,13.90
2006,06,25,06,39,14.00
2006,06,25,06,40,14.10
2006,06,25,06,41,14.20
2006,06,25,06,42,14.30
2006,06,25,06,43,14.40
2006,06,25,06,44,14.50
2006,06,25,06,45,14.50
2006,06,25,06,46,14.60
2006,06,25,06,47,14.70
2006,06,25,06,48,14.70
2006,06,25,06,49,14.80
2006,06,25,06,50,14.80
2006,06,25,06,51,14.80
2006,06,25,06,52,14.80
2006,06,25,06,53,14.90
2006,06,25,06,54,14.90
2006,06,25,06,55,14.90
2006,06,25,06,56,14.90
2006,06,25,06,57,14.90
2006,06,25,06,58,15.00
2006,06,25,06,59,15.00
2006,06,25,07,00,15.00
2006,06,25,07,01,15.00
2006,06,25,07,02,15.00
2006,06,25,07,03,15.10
2006,06,25,07,04,15.10
2006,06,25,07,05,15.10
2006,06,25,07,06,15.20
2006,06,25,07,07,15.20
2006,06,25,07,08,15.30
2006,06,25,07,09,15.30
2006,06,25,07,10,15.30
2006,06,25,07,11,15.40
2006,06,25,07,12,15.50
2006,06,25,07,13,15.50
2006,06,25,07,14,15.60
2006,06,25,07,15,15.70
2006,06,25,07,16,15.80
2006,06,25,07,17,15.90
2006,06,25,07,18,16.00
2006,06,25,07,19,16.10
2006,06,25,07,20,16.20
2006,06,25,07,21,16.30
2006,06,25,07,22,16.30
2006,06,25,07,23,16.40
2006,06,25,07,24,16.50
2006,06,25,07,25,16.70
2006,06,25,07,26,16.90
2006,06,25,07,27,17.00
2006,06,25,07,28,17.10
2006,06,25,07,29,17.30
2006,06,25,07,30,17.40
2006,06,25,07,31,17.60
2006,06,25,07,32,17.70
2006,06,25,07,33,17.90
2006,06,25,07,34,18.00
2006,06,25,07,35,18.20
2006,06,25,07,36,18.30
2006,06,25,07,37,18.50
2006,06,25,07,38,18.60
2006,06,25,07,39,18.80
2006,06,25,07,40,18.90
2006,06,25,07,41,19.10
2006,06,25,07,42,19.20
2006,06,25,07,43,19.40
2006,06,25,07,44,19.50
2006,06,25,07,45,19.60
2006,06,25,07,46,19.60
2006,06,25,07,47,19.50
2006,06,25,07,48,19.50
2006,06,25,07,49,19.50
2006,06,25,07,50,19.50
2006,06,25,07,51,19.60
2006,06,25,07,52,19.70
2006,06,25,07,53,19.80
2006,06,25,07,54,19.70
2006,06,25,07,55,19.70
2006,06,25,07,56,19.70
2006,06,25,07,57,19.70
2006,06,25,07,58,19.80
2006,06,25,07,59,19.80
2006,06,25,08,00,19.80
2006,06,25,08,01,19.90
2006,06,25,08,02,19.90
2006,06,25,08,03,19.90
2006,06,25,08,04,19.90
2006,06,25,08,05,20.00
2006,06,25,08,06,20.10
2006,06,25,08,07,20.20
2006,06,25,08,08,20.30
2006,06,25,08,09,20.30
2006,06,25,08,10,20.40
2006,06,25,08,11,20.60
2006,06,25,08,12,20.80
2006,06,25,08,13,20.90
2006,06,25,08,14,21.00
2006,06,25,08,15,21.10
2006,06,25,08,16,21.30
2006,06,25,08,17,21.40
2006,06,25,08,18,21.50
2006,06,25,08,19,21.60
2006,06,25,08,20,21.70
2006,06,25,08,21,21.80
2006,06,25,08,22,21.80
2006,06,25,08,23,21.80
2006,06,25,08,24,21.80
2006,06,25,08,25,21.90
2006,06,25,08,26,21.90
2006,06,25,08,27,22.00
2006,06,25,08,28,22.10
2006,06,25,08,29,22.10
2006,06,25,08,30,22.10
2006,06,25,08,31,22.10
2006,06,25,08,32,22.20
2006,06,25,08,33,22.20
2006,06,25,08,34,22.30
2006,06,25,08,35,22.40
2006,06,25,08,36,22.50
2006,06,25,08,37,22.60
2006,06,25,08,38,22.70
2006,06,25,08,39,22.80
2006,06,25,08,40,22.90
2006,06,25,08,41,22.90
2006,06,25,08,42,22.90
2006,06,25,08,43,22.90
2006,06,25,08,44,22.90
2006,06,25,08,45,22.90
2006,06,25,08,46,22.90
2006,06,25,08,47,22.80
2006,06,25,08,48,22.80
2006,06,25,08,49,22.70
2006,06,25,08,50,22.50
2006,06,25,08,51,22.30
2006,06,25,08,52,22.20
2006,06,25,08,53,22.00
2006,06,25,08,54,22.00
2006,06,25,08,55,22.10
2006,06,25,08,56,22.10
2006,06,25,08,57,22.20
2006,06,25,08,58,22.20
2006,06,25,08,59,22.20
2006,06,25,09,00,22.20
2006,06,25,09,01,22.30
2006,06,25,09,02,22.40
2006,06,25,09,03,22.50
2006,06,25,09,04,22.60
2006,06,25,09,05,22.60
2006,06,25,09,06,22.70
2006,06,25,09,07,22.80
2006,06,25,09,08,22.90
2006,06,25,09,09,22.90
2006,06,25,09,10,23.10
2006,06,25,09,11,23.30
2006,06,25,09,12,23.40
2006,06,25,09,13,23.40
2006,06,25,09,14,23.40
2006,06,25,09,15,23.60
2006,06,25,09,16,23.60
2006,06,25,09,17,23.50
2006,06,25,09,18,23.50
2006,06,25,09,19,23.60
2006,06,25,09,20,23.40
2006,06,25,09,21,23.30
2006,06,25,09,22,23.30
2006,06,25,09,23,23.30
2006,06,25,09,24,23.30
2006,06,25,09,25,23.30
2006,06,25,09,26,23.30
2006,06,25,09,27,23.30
2006,06,25,09,28,23.30
2006,06,25,09,29,23.20
2006,06,25,09,30,23.20
2006,06,25,09,31,23.20
2006,06,25,09,32,23.10
2006,06,25,09,33,23.10
2006,06,25,09,34,23.00
2006,06,25,09,35,22.90
2006,06,25,09,36,22.90
2006,06,25,09,37,22.80
2006,06,25,09,38,22.70
2006,06,25,09,39,22.70
2006,06,25,09,40,22.70
2006,06,25,09,41,22.60
2006,06,25,09,42,22.50
2006,06,25,09,43,22.50
2006,06,25,09,44,22.50
2006,06,25,09,45,22.40
2006,06,25,09,46,22.40
2006,06,25,09,47,22.50
2006,06,25,09,48,22.60
2006,06,25,09,49,22.60
2006,06,25,09,50,22.70
2006,06,25,09,51,22.60
2006,06,25,09,52,22.70
2006,06,25,09,53,22.70
2006,06,25,09,54,22.80
2006,06,25,09,55,22.70
2006,06,25,09,56,22.70
2006,06,25,09,57,22.70
2006,06,25,09,58,22.50
2006,06,25,09,59,22.50
2006,06,25,10,00,22.50
2006,06,25,10,01,22.50
2006,06,25,10,02,22.40
2006,06,25,10,03,22.50
2006,06,25,10,04,22.60
2006,06,25,10,05,22.60
2006,06,25,10,06,22.80
2006,06,25,10,07,22.90
2006,06,25,10,08,22.90
2006,06,25,10,09,23.00
2006,06,25,10,10,23.20
2006,06,25,10,11,23.30
2006,06,25,10,12,23.30
2006,06,25,10,13,23.40
2006,06,25,10,14,23.40
2006,06,25,10,15,23.50
2006,06,25,10,16,23.60
2006,06,25,10,17,23.60
2006,06,25,10,18,23.50
2006,06,25,10,19,23.40
2006,06,25,10,20,23.60
2006,06,25,10,21,23.70
2006,06,25,10,22,23.80
2006,06,25,10,23,23.80
2006,06,25,10,24,23.70
2006,06,25,10,25,23.60
2006,06,25,10,26,23.60
2006,06,25,10,27,23.70
2006,06,25,10,28,23.70
2006,06,25,10,29,23.70
2006,06,25,10,30,23.70
2006,06,25,10,31,23.70
2006,06,25,10,32,23.70
2006,06,25,10,33,23.70
2006,06,25,10,34,23.70
2006,06,25,10,35,23.70
2006,06,25,10,36,23.70
2006,06,25,10,37,23.70
2006,06,25,10,38,23.70
2006,06,25,10,39,23.70
2006,06,25,10,40,23.70
2006,06,25,10,41,23.80
2006,06,25,10,42,23.80
2006,06,25,10,43,23.90
2006,06,25,10,44,23.90
2006,06,25,10,45,23.90
2006,06,25,10,46,23.80
2006,06,25,10,47,23.80
2006,06,25,10,48,23.80
2006,06,25,10,49,23.80
2006,06,25,10,50,23.90
2006,06,25,10,51,24.00
2006,06,25,10,52,24.10
2006,06,25,10,53,24.10
2006,06,25,10,54,24.20
2006,06,25,10,55,24.30
2006,06,25,10,56,24.40
2006,06,25,10,57,24.60
2006,06,25,10,58,24.70
2006,06,25,10,59,24.70
2006,06,25,11,00,24.70
2006,06,25,11,01,24.60
2006,06,25,11,02,24.60
2006,06,25,11,03,24.50
2006,06,25,11,04,24.40
2006,06,25,11,05,24.40
2006,06,25,11,06,24.40
2006,06,25,11,07,24.30
2006,06,25,11,08,24.20
2006,06,25,11,09,24.20
2006,06,25,11,10,24.20
2006,06,25,11,11,24.10
2006,06,25,11,12,24.10
2006,06,25,11,13,24.10
2006,06,25,11,14,24.10
2006,06,25,11,15,24.10
2006,06,25,11,16,24.20
2006,06,25,11,17,24.30
2006,06,25,11,18,24.40
2006,06,25,11,19,24.50
2006,06,25,11,20,24.50
2006,06,25,11,21,24.60
2006,06,25,11,22,24.70
2006,06,25,11,23,24.80
2006,06,25,11,24,24.90
2006,06,25,11,25,25.00
2006,06,25,11,26,25.10
2006,06,25,11,27,25.20
2006,06,25,11,28,25.30
2006,06,25,11,29,25.30
2006,06,25,11,30,25.40
2006,06,25,11,31,25.30
2006,06,25,11,32,25.30
2006,06,25,11,33,25.30
2006,06,25,11,34,25.30
2006,06,25,11,35,25.30
2006,06,25,11,36,25.40
2006,06,25,11,37,25.40
2006,06,25,11,38,25.50
2006,06,25,11,39,25.40
2006,06,25,11,40,25.40
2006,06,25,11,41,25.30
2006,06,25,11,42,25.30
2006,06,25,11,43,25.20
2006,06,25,11,44,25.20
2006,06,25,11,45,25.20
2006,06,25,11,46,25.30
2006,06,25,11,47,25.30
2006,06,25,11,48,25.30
2006,06,25,11,49,25.30
2006,06,25,11,50,25.30
2006,06,25,11,51,25.30
2006,06,25,11,52,25.40
2006,06,25,11,53,25.40
2006,06,25,11,54,25.50
2006,06,25,11,55,25.50
2006,06,25,11,56,25.60
2006,06,25,11,57,25.50
2006,06,25,11,58,25.40
2006,06,25,11,59,25.40
2006,06,25,12,00,25.50
2006,06,25,12,01,25.60
2006,06,25,12,02,25.60
2006,06,25,12,03,25.50
2006,06,25,12,04,25.40
2006,06,25,12,05,25.30
2006,06,25,12,06,25.20
2006,06,25,12,07,25.20
2006,06,25,12,08,25.20
2006,06,25,12,09,25.10
2006,06,25,12,10,25.10
2006,06,25,12,11,25.20
2006,06,25,12,12,25.20
2006,06,25,12,13,25.20
2006,06,25,12,14,25.20
2006,06,25,12,15,25.30
2006,06,25,12,16,25.20
2006,06,25,12,17,25.20
2006,06,25,12,18,25.20
2006,06,25,12,19,25.10
2006,06,25,12,20,25.10
2006,06,25,12,21,24.90
2006,06,25,12,22,24.70
2006,06,25,12,23,24.40
2006,06,25,12,24,24.20
2006,06,25,12,25,24.30
2006,06,25,12,26,24.40
2006,06,25,12,27,24.50
2006,06,25,12,28,24.60
2006,06,25,12,29,24.70
2006,06,25,12,30,24.70
2006,06,25,12,31,24.70
2006,06,25,12,32,24.80
2006,06,25,12,33,24.80
2006,06,25,12,34,24.90
2006,06,25,12,35,24.90
2006,06,25,12,36,24.80
2006,06,25,12,37,24.80
2006,06,25,12,38,24.70
2006,06,25,12,39,24.60
2006,06,25,12,40,24.50
2006,06,25,12,41,24.40
2006,06,25,12,42,24.50
2006,06,25,12,43,24.50
2006,06,25,12,44,24.60
2006,06,25,12,45,24.60
2006,06,25,12,46,24.60
2006,06,25,12,47,24.50
2006,06,25,12,48,24.40
2006,06,25,12,49,24.20
2006,06,25,12,50,24.30
2006,06,25,12,51,24.40
2006,06,25,12,52,24.50
2006,06,25,12,53,24.40
2006,06,25,12,54,24.30
2006,06,25,12,55,24.20
2006,06,25,12,56,24.10
2006,06,25,12,57,24.10
2006,06,25,12,58,23.90
2006,06,25,12,59,23.70
2006,06,25,13,00,23.70
2006,06,25,13,01,23.70
2006,06,25,13,02,23.70
2006,06,25,13,03,23.90
2006,06,25,13,04,24.00
2006,06,25,13,05,24.10
2006,06,25,13,06,24.10
2006,06,25,13,07,24.10
2006,06,25,13,08,24.20
2006,06,25,13,09,24.30
2006,06,25,13,10,24.50
2006,06,25,13,11,24.70
2006,06,25,13,12,24.70
2006,06,25,13,13,24.80
2006,06,25,13,14,24.90
2006,06,25,13,15,24.90
2006,06,25,13,16,24.90
2006,06,25,13,17,24.90
2006,06,25,13,18,24.90
2006,06,25,13,19,25.10
2006,06,25,13,20,25.20
2006,06,25,13,21,25.40
2006,06,25,13,22,25.40
2006,06,25,13,23,25.50
2006,06,25,13,24,25.60
2006,06,25,13,25,25.60
2006,06,25,13,26,25.60
2006,06,25,13,27,25.60
2006,06,25,13,28,25.60
2006,06,25,13,29,25.70
2006,06,25,13,30,25.80
2006,06,25,13,31,25.90
2006,06,25,13,32,25.90
2006,06,25,13,33,26.10
2006,06,25,13,34,26.30
2006,06,25,13,35,26.30
2006,06,25,13,36,26.50
2006,06,25,13,37,26.60
2006,06,25,13,38,26.50
2006,06,25,13,39,26.30
2006,06,25,13,40,26.40
2006,06,25,13,41,26.50
2006,06,25,13,42,26.60
2006,06,25,13,43,26.60
2006,06,25,13,44,26.70
2006,06,25,13,45,26.70
2006,06,25,13,46,26.60
2006,06,25,13,47,26.60
2006,06,25,13,48,26.70
2006,06,25,13,49,26.80
2006,06,25,13,50,26.80
2006,06,25,13,51,26.80
2006,06,25,13,52,26.80
2006,06,25,13,53,26.90
2006,06,25,13,54,26.90
2006,06,25,13,55,27.00
2006,06,25,13,56,27.10
2006,06,25,13,57,27.20
2006,06,25,13,58,27.20
2006,06,25,13,59,27.30
2006,06,25,14,00,27.30
2006,06,25,14,01,27.40
2006,06,25,14,02,27.60
2006,06,25,14,03,27.80
2006,06,25,14,04,27.90
2006,06,25,14,05,27.90
2006,06,25,14,06,28.00
2006,06,25,14,07,28.00
2006,06,25,14,08,28.00
2006,06,25,14,09,28.00
2006,06,25,14,10,27.90
2006,06,25,14,11,27.90
2006,06,25,14,12,27.80
2006,06,25,14,13,27.80
2006,06,25,14,14,27.70
2006,06,25,14,15,27.70
2006,06,25,14,16,27.60
2006,06,25,14,17,27.60
2006,06,25,14,18,27.50
2006,06,25,14,19,27.40
2006,06,25,14,20,27.30
2006,06,25,14,21,27.30
2006,06,25,14,22,27.50
2006,06,25,14,23,27.60
2006,06,25,14,24,27.60
2006,06,25,14,25,27.50
2006,06,25,14,26,27.30
2006,06,25,14,27,27.30
2006,06,25,14,28,27.40
2006,06,25,14,29,27.50
2006,06,25,14,30,27.70
2006,06,25,14,31,28.00
2006,06,25,14,32,28.20
2006,06,25,14,33,28.30
2006,06,25,14,34,28.40
2006,06,25,14,35,28.50
2006,06,25,14,36,28.60
2006,06,25,14,37,28.60
2006,06,25,14,38,28.50
2006,06,25,14,39,28.40
2006,06,25,14,40,28.30
2006,06,25,14,41,28.20
2006,06,25,14,42,28.20
2006,06,25,14,43,28.20
2006,06,25,14,44,28.10
2006,06,25,14,45,28.00
2006,06,25,14,46,27.80
2006,06,25,14,47,27.50
2006,06,25,14,48,27.40
2006,06,25,14,49,27.50
2006,06,25,14,50,27.60
2006,06,25,14,51,27.60
2006,06,25,14,52,27.70
2006,06,25,14,53,27.80
2006,06,25,14,54,27.90
2006,06,25,14,55,28.00
2006,06,25,14,56,28.10
2006,06,25,14,57,28.10
2006,06,25,14,58,28.20
2006,06,25,14,59,28.20
2006,06,25,15,00,28.30
2006,06,25,15,01,28.30
2006,06,25,15,02,28.40
2006,06,25,15,03,28.30
2006,06,25,15,04,28.40
2006,06,25,15,05,28.40
2006,06,25,15,06,28.40
2006,06,25,15,07,28.30
2006,06,25,15,08,28.40
2006,06,25,15,09,28.50
2006,06,25,15,10,28.60
2006,06,25,15,11,28.70
2006,06,25,15,12,28.70
2006,06,25,15,13,28.70
2006,06,25,15,14,28.60
2006,06,25,15,15,28.50
2006,06,25,15,16,28.40
2006,06,25,15,17,28.40
2006,06,25,15,18,28.40
2006,06,25,15,19,28.50
2006,06,25,15,20,28.60
2006,06,25,15,21,28.70
2006,06,25,15,22,28.80
2006,06,25,15,23,28.60
2006,06,25,15,24,28.40
2006,06,25,15,25,28.50
2006,06,25,15,26,28.60
2006,06,25,15,27,28.60
2006,06,25,15,28,28.40
2006,06,25,15,29,28.30
2006,06,25,15,30,28.40
2006,06,25,15,31,28.40
2006,06,25,15,32,28.50
2006,06,25,15,33,28.60
2006,06,25,15,34,28.70
2006,06,25,15,35,28.70
2006,06,25,15,36,28.70
2006,06,25,15,37,28.70
2006,06,25,15,38,28.70
2006,06,25,15,39,28.70
2006,06,25,15,40,28.80
2006,06,25,15,41,28.80
2006,06,25,15,42,28.60
2006,06,25,15,43,28.50
2006,06,25,15,44,28.30
2006,06,25,15,45,28.10
2006,06,25,15,46,27.80
2006,06,25,15,47,27.50
2006,06,25,15,48,27.40
2006,06,25,15,49,27.30
2006,06,25,15,50,27.20
2006,06,25,15,51,27.00
2006,06,25,15,52,26.80
2006,06,25,15,53,26.60
2006,06,25,15,54,26.50
2006,06,25,15,55,26.40
2006,06,25,15,56,26.40
2006,06,25,15,57,26.30
2006,06,25,15,58,26.10
2006,06,25,15,59,26.00
2006,06,25,16,00,25.90
2006,06,25,16,01,25.90
2006,06,25,16,02,25.80
2006,06,25,16,03,25.70
2006,06,25,16,04,25.60
2006,06,25,16,05,25.40
2006,06,25,16,06,25.30
2006,06,25,16,07,25.10
2006,06,25,16,08,25.00
2006,06,25,16,09,24.90
2006,06,25,16,10,24.90
2006,06,25,16,11,24.90
2006,06,25,16,12,25.00
2006,06,25,16,13,25.10
2006,06,25,16,14,25.20
2006,06,25,16,15,25.30
2006,06,25,16,16,25.40
2006,06,25,16,17,25.50
2006,06,25,16,18,25.60
2006,06,25,16,19,25.50
2006,06,25,16,20,25.50
2006,06,25,16,21,25.40
2006,06,25,16,22,25.40
2006,06,25,16,23,25.40
2006,06,25,16,24,25.40
2006,06,25,16,25,25.50
2006,06,25,16,26,25.50
2006,06,25,16,27,25.60
2006,06,25,16,28,25.60
2006,06,25,16,29,25.60
2006,06,25,16,30,25.70
2006,06,25,16,31,25.80
2006,06,25,16,32,25.80
2006,06,25,16,33,25.80
2006,06,25,16,34,25.90
2006,06,25,16,35,26.00
2006,06,25,16,36,26.10
2006,06,25,16,37,26.20
2006,06,25,16,38,26.20
2006,06,25,16,39,26.30
2006,06,25,16,40,26.50
2006,06,25,16,41,26.60
2006,06,25,16,42,26.70
2006,06,25,16,43,26.80
2006,06,25,16,44,26.90
2006,06,25,16,45,27.00
2006,06,25,16,46,27.10
2006,06,25,16,47,27.10
2006,06,25,16,48,27.20
2006,06,25,16,49,27.30
2006,06,25,16,50,27.50
2006,06,25,16,51,27.60
2006,06,25,16,52,27.60
2006,06,25,16,53,27.70
2006,06,25,16,54,27.80
2006,06,25,16,55,27.80
2006,06,25,16,56,27.80
2006,06,25,16,57,27.70
2006,06,25,16,58,27.60
2006,06,25,16,59,27.70
2006,06,25,17,00,27.70
2006,06,25,17,01,27.80
2006,06,25,17,02,27.90
2006,06,25,17,03,27.90
2006,06,25,17,04,27.90
2006,06,25,17,05,27.90
2006,06,25,17,06,27.90
2006,06,25,17,07,27.90
2006,06,25,17,08,27.90
2006,06,25,17,09,28.00
2006,06,25,17,10,28.00
2006,06,25,17,11,28.00
2006,06,25,17,12,28.10
2006,06,25,17,13,28.10
2006,06,25,17,14,28.10
2006,06,25,17,15,28.20
2006,06,25,17,16,28.20
2006,06,25,17,17,28.30
2006,06,25,17,18,28.40
2006,06,25,17,19,28.50